BEIDOU-2 IGSO-7

Last updated on Wed Jul 16 2025 00:02:49 GMT+0000 (Coordinated Universal Time)

1 43539U 18057A 25196.61793253 -.00000085 00000+0 00000+0 0 9996 2 43539 55.1703 165.9712 0089856 236.4683 223.2626 1.00247975 25753
UTC large
Height (km)
Speed (km/s)
/
Latitude / Longitude
Inclination (degrees)
Orbital Period (minutes)
Azimuth
Elevation
Range (km)
Doppler Factor

Next 0 passes for location: London (51.5072 / 0.1276)

Sorry there are no passes over London.